This is the latest recevied weather packets stored in our database for station/object W5GMO. If no packets are shown the sender has not sent any weather packets the latest 10 day(s).
| Time | Temp. | Humidity | Pressure | Rain* | Wind** | Luminosity | Snow |
|---|---|---|---|---|---|---|---|
| 1788459711 | 31.11° C | 1% | 1015.8 hPa | 0 mm | - | 395 W/m² | - |
| 1788459409 | 30.56° C | 1% | 1015.8 hPa | 0 mm | - | 517 W/m² | - |
| 1788459105 | 30.56° C | 1% | 1015.5 hPa | 0 mm | - | 462 W/m² | - |
| 1788458800 | 30.56° C | 1% | 1015.4 hPa | 0 mm | - | 445 W/m² | - |
| 1788458500 | 31.11° C | 1% | 1015.3 hPa | 0 mm | - | 366 W/m² | - |
| 1788458199 | 30.56° C | 1% | 1015.4 hPa | 0 mm | - | 443 W/m² | - |
| 1788457898 | 30.56° C | 1% | 1015.6 hPa | 0 mm | - | 587 W/m² | - |
| 1788457593 | 30.56° C | 1% | 1016 hPa | 0 mm | - | 589 W/m² | - |
| 1788457288 | 30° C | 1% | 1016.1 hPa | 0 mm | - | 670 W/m² | - |
| 1788456983 | 29.44° C | 1% | 1016.3 hPa | 0 mm | - | 511 W/m² | - |
| 1788456680 | 30° C | 1% | 1016.5 hPa | 0 mm | - | 343 W/m² | - |
| 1788456406 | 30.56° C | 1% | 1016.7 hPa | 0 mm | - | 447 W/m² | - |
| 1788456075 | 30.56° C | 1% | 1016.7 hPa | 0 mm | - | 835 W/m² | - |
| 1788455774 | 30° C | 1% | 1016.7 hPa | 0 mm | - | 757 W/m² | - |
| 1788455470 | 30° C | 1% | 1016.7 hPa | 0 mm | - | 610 W/m² | - |
| 1788455169 | 28.89° C | 1% | 1016.9 hPa | 0 mm | - | 669 W/m² | - |
| 1788454865 | 28.89° C | 1% | 1016.8 hPa | 0 mm | - | 713 W/m² | - |
| 1788454561 | 28.33° C | 1% | 1017.4 hPa | 0 mm | - | 666 W/m² | - |
| 1788454258 | 28.89° C | 1% | 1016.9 hPa | 0 mm | - | 335 W/m² | - |
| 1788453952 | 28.33° C | 1% | 1016.8 hPa | 0 mm | - | 955 W/m² | - |
| 1788453649 | 28.33° C | 1% | 1017.1 hPa | 0 mm | - | 738 W/m² | - |
| 1788453348 | 27.78° C | 1% | 1017.5 hPa | 0 mm | - | 530 W/m² | - |
| 1788453045 | 27.78° C | 1% | 1017.4 hPa | 0 mm | - | 528 W/m² | - |
| 1788452741 | 27.22° C | 1% | 1017.5 hPa | 0 mm | - | 257 W/m² | - |
| 1788452436 | 27.22° C | 1% | 1017.8 hPa | 0 mm | - | 186 W/m² | - |
* Rain latest hour (hover to see other rain measurements)
** Current wind speed in m/s (hover to see current wind gust speed)